STARLINK-11158, 60403

Orbit data source: Space-Track

STARLINK-11158, 60403 is a payload satellite owned by SpaceX/Seattle (US) in LEO that was launched on Sat, 10 Aug 2024 UTC via an FALCON 9 launch vehicle from the Air Force Eastern Test Range (AFETR). Payloads include a variety of satellites, spacecraft, and rockets equipped with specific instruments for various scientific and technological missions. These include communications satellites like Starlink; space stations such as the ISS; scientific satellites like the Hubble; Earth observation satellites from companies like Planet Labs, Umbra, and HawkEye 360; GPS; miniature CubeSats for education and research; and military/defense satellites.

Loading next visibility...
STARLINK-11158 details
Identifier
60403, 2024-141F
Orbit
LEO
Last TLE update16 hours ago
Origin
Flag of USSpaceX/Seattle (US)
ManufacturerSpaceX/Seattle
MissionOperational spacecraft
Bus & MotorSTARLINK V2M, Unknown motor
Mass730 kg wet, ~700 kg dry
Launch date (UTC)
2024-08-10 (5 months ago)
Launch vehicle
FALCON 9
Launch site
Air Force Eastern Test Range (AFETR)
Object type
Payload
Rocket body
Debris
Shape & HBRUnknown
Radar Cross SectionLarge (>1 m²)

Expand to show TLE details & history

TLE from 16 hours ago
0 STARLINK-11158
1 60403U 24141F   25014.65363882  .00000041  00000-0  51967-5 0  9996
2 60403  53.1587 352.3172 0001222  78.3441 281.7714 15.69707157 25871
Epoch: 2025-01-14T15:41Z
Definitive object data (Epoch: 2025-01-14T15:41:14.394Z)
Latitude-0°
Longitude2.64998°
Altitude360.482 km
Speed7.694 km/s
True Right ascension23h 29m 16s
True Declination0° 00' 00"
Sunlit
Object was in daylight at TLE epoch
Visualization TLE readout
Latitude45.71974°
Longitude49.2711°
Altitude363.78 km
Speed7.697 km/s
Apparent Right ascension23h 09m 25s
Apparent Declination6° 48' 05"
Sunlit
Object is in full shadow
Visualization observer readout
Local Sidereal Time07:53:38
Azimuth304.224° NW
Elevation-25.101°
Doppler factor1
Orbital elements
Apogee altitude360.819 km
Perigee altitude359.172 km
Semi-major axis6,738.133 km
Eccentricity0.0001222
Inclination53.1587°
RAAN352.3172°
Arg. of periapsis78.3441°
True anomaly281.75769°
Mean anomaly281.7714°
Eccentric anomaly281.76455°
Mean motion3.92404 °/min
BSTAR0.0000051967
Orbital period91.74 mins
Loading maneuver chart data...
Loading historical data...
Loading historical data...
Loading historical data...
Loading historical data...
Loading historical data...
Loading historical data...
Loading historical data...

STARLINK-11158 Visibility forecast

Observer location: undefined°, undefined

Span
Click to sort rows by Start time (UTC) header in descending order
Start Az.
Max El. time (UTC)
Max El. Az.
Max El.
End time (UTC)
End Az.
4 mins2025-01-15 07:27:08.274Z331.46° NNW2025-01-15 07:29:08.274Z39.541° NE31.768°2025-01-15 07:31:08.274Z100.059° ESE
|